User: anonymous   Login
Location: Goheenville
(40.9070°N, 79.3720°W)
Time: 18:10:06
(UTC-04:00)
Language:

Meteor 2-10 Rocket - Orbit

View from above orbital plane
View from above orbital plane
View from above satellite
View from above satellite

Ground track
Ground track

The orbit data is extracted from the following two-line orbital elements,

1 14453U 83109B   18171.74690073  .00000039  00000-0  10040-4 0  9993
2 14453  81.1677  95.5322 0106162  77.4778 283.8251 14.24696425800001
Epoch (UTC): 20 June 2018 17:55:32
Eccentricity: 0.0106162
inclination: 81.1677°
perigee height: 733 km
apogee height: 886 km
right ascension of ascending node: 95.5322°
argument of perigee: 77.4778°
revolutions per day: 14.24696425
mean anomaly at epoch: 283.8251°
orbit number at epoch: 80000

The dashed part of the orbit path shows where the satellite is in the earth's shadow,  

DLR